EW9507 Weather Reports


Display with metric or nautical units.
time (UTC)temp
F
wind
direction
speed
MPH
gust
MPH
rain 1hr
in
rain 24hr
in
rain mn
in
humidity
%
barometer
mb
20260901233005 76 108 3.0 5.0 0.01 0.02 0.02 44 1003.3
20260901231503 75 115 3.0 5.0 0.01 0.02 0.02 47 1003.3
20260901230002 75 167 2.0 4.0 0.01 0.02 0.02 44 1003.4
20260901224601 73 145 4.0 7.0 0.01 0.02 0.02 43 1003.5
20260901223030 78 220 10.0 16.0 0.00 0.01 0.01 35 1003.6
20260901221529 79 271 9.0 23.0 0.00 0.01 0.01 33 1003.5
20260901220025 80 257 9.0 14.0 0.00 0.01 0.01 32 1003.5
20260901214522 79 283 7.0 13.0 0.00 0.01 0.01 33 1003.6
20260901213021 78 241 7.0 15.0 0.00 0.01 0.01 33 1003.8
20260901211519 78 241 10.0 23.0 0.00 0.01 0.01 35 1004.0
20260901210015 78 233 10.0 17.0 0.00 0.01 0.01 35 1004.0
20260901204513 79 157 11.0 20.0 0.00 0.01 0.01 35 1004.1
20260901203009 77 241 9.0 16.0 0.00 0.01 0.01 37 1004.3
20260901201507 77 204 12.0 17.0 0.00 0.01 0.01 38 1004.6
20260901200002 77 162 11.0 20.0 0.00 0.01 0.01 40 1004.9
20260901194601 75 210 6.0 22.0 0.00 0.01 0.01 42 1005.2
20260901193058 75 164 13.0 20.0 0.00 0.01 0.01 41 1005.2
20260901191604 75 166 11.0 24.0 0.00 0.01 0.01 42 1005.4
20260901190024 74 140 10.0 18.0 0.00 0.01 0.01 45 1005.7
20260901184522 73 192 14.0 21.0 0.00 0.01 0.01 45 1006.1
20260901183016 72 96 9.0 19.0 0.00 0.01 0.01 44 1006.2
20260901181512 71 137 12.0 20.0 0.00 0.01 0.01 47 1006.5
20260901180007 68 135 10.0 17.0 0.00 0.01 0.01 52 1006.7
20260901174506 68 124 13.0 17.0 0.00 0.01 0.01 53 1006.8
20260901173040 67 138 11.0 16.0 0.00 0.01 0.01 56 1007.0
20260901171532 65 120 9.0 13.0 0.00 0.01 0.01 60 1007.2
20260901170028 64 115 8.0 11.0 0.00 0.01 0.01 66 1007.3
20260901164540 64 148 4.0 6.0 0.00 0.01 0.01 66 1007.3
20260901163027 63 127 3.0 5.0 0.00 0.01 0.01 68 1007.3
20260901161547 63 138 4.0 7.0 0.01 0.01 0.01 65 1007.3
20260901160025 62 98 7.0 10.0 0.01 0.01 0.01 67 1007.3
20260901154523 62 255 1.0 3.0 0.01 0.01 0.01 75 1007.5
20260901153024 63 344 2.0 4.0 0.01 0.01 0.01 73 1007.4
20260901151524 62 28 1.0 5.0 0.00 0.00 0.00 73 1007.5
20260901150032 62 140 4.0 10.0 0.00 0.00 0.00 70 1007.8
20260901144529 64 164 6.0 9.0 0.00 0.00 0.00 66 1007.8
20260901143018 65 174 7.0 11.0 0.00 0.00 0.00 61 1007.8
20260901141517 65 185 5.0 8.0 0.00 0.00 0.00 63 1007.8
20260901140017 64 108 1.0 5.0 0.00 0.00 0.00 63 1007.5
20260901134547 64 113 3.0 6.0 0.00 0.00 0.00 58 1007.5
20260901133045 63 120 2.0 4.0 0.00 0.00 0.00 65 1007.4
20260901131542 63 1 1.0 5.0 0.00 0.00 0.00 64 1007.2
20260901130046 62 344 1.0 3.0 0.00 0.00 0.00 67 1007.6
20260901124537 64 159 5.0 15.0 0.00 0.00 0.00 59 1008.2
20260901123033 66 130 13.0 23.0 0.00 0.00 0.00 49 1008.2
20260901121559 65 177 9.0 13.0 0.00 0.00 0.00 48 1008.1
20260901120058 64 164 6.0 10.0 0.00 0.00 0.00 43 1008.1
20260901114637 64 156 7.0 12.0 0.00 0.00 0.00 43 1008.3
20260901113057 64 145 6.0 12.0 0.00 0.00 0.00 43 1008.4
20260901111554 64 194 10.0 18.0 0.00 0.00 0.00 43 1008.6
20260901110054 64 192 5.0 11.0 0.00 0.00 0.00 42 1008.1
20260901104547 63 136 9.0 13.0 0.00 0.00 0.00 42 1008.5
20260901103046 63 153 12.0 17.0 0.00 0.00 0.00 41 1008.7
20260901101550 63 161 10.0 15.0 0.00 0.00 0.00 41 1008.7
20260901100044 63 159 11.0 19.0 0.00 0.00 0.00 41 1008.8
20260901094513 61 152 8.0 10.0 0.00 0.00 0.00 43 1008.6
20260901093013 63 142 9.0 14.0 0.00 0.00 0.00 41 1008.7
20260901091541 63 154 9.0 13.0 0.00 0.00 0.00 41 1008.6
20260901090048 62 156 8.0 12.0 0.00 0.00 0.00 41 1008.7
20260901084507 62 164 9.0 12.0 0.00 0.00 0.00 41 1008.6
20260901083005 61 140 8.0 11.0 0.00 0.00 0.00 42 1008.9
20260901081601 61 145 7.0 10.0 0.00 0.00 0.00 42 1009.1
20260901080104 60 152 7.0 10.0 0.00 0.00 0.00 43 1009.4
20260901074556 59 144 6.0 10.0 0.00 0.00 0.00 43 1009.6
20260901073100 59 140 5.0 7.0 0.00 0.00 0.00 43 1009.7
20260901071524 58 149 6.0 8.0 0.00 0.00 0.00 42 1010.0
20260901070022 60 142 5.0 9.0 0.00 0.00 0.00 38 1010.1
20260901064520 60 165 7.0 12.0 0.00 0.00 0.00 38 1010.3
20260901063023 58 145 7.0 10.0 0.00 0.00 0.00 38 1010.4
20260901061511 59 135 4.0 8.0 0.00 0.00 0.00 33 1010.4
20260901060009 61 150 5.0 8.0 0.00 0.00 0.00 32 1010.6
20260901054506 61 161 6.0 8.0 0.00 0.00 0.00 33 1010.7
20260901053006 57 154 3.0 6.0 0.00 0.00 0.00 36 1010.8
20260901051503 58 142 2.0 4.0 0.00 0.00 0.00 33 1010.7
20260901050003 58 197 2.0 3.0 0.00 0.00 0.00 32 1010.7
20260901044608 58 286 1.0 3.0 0.00 0.00 0.00 33 1010.6
20260901043100 58 152 0.0 3.0 0.00 0.00 0.00 31 1010.6
20260901041604 62 135 1.0 4.0 0.00 0.00 0.00 27 1010.6
20260901040059 64 135 1.0 6.0 0.00 0.00 0.00 25 1010.7
20260901034556 65 156 3.0 7.0 0.00 0.00 0.00 23 1010.8
20260901033116 67 143 6.0 9.0 0.00 0.00 0.00 21 1011.0
20260901031555 68 142 6.0 9.0 0.00 0.00 0.00 20 1010.8
20260901024552 70 94 5.0 8.0 0.00 0.00 0.00 18 1010.5
20260901023051 71 83 5.0 7.0 0.00 0.00 0.00 17 1010.3
20260901021601 71 86 5.0 8.0 0.00 0.00 0.00 17 1010.2
20260901020051 71 95 4.0 6.0 0.00 0.00 0.00 17 1010.1
20260901014548 72 84 4.0 7.0 0.00 0.00 0.00 16 1010.0
20260901013054 73 86 4.0 6.0 0.00 0.00 0.00 15 1009.9
20260901011607 74 79 3.0 5.0 0.00 0.00 0.00 15 1009.9
20260901010050 75 67 3.0 7.0 0.00 0.00 0.00 15 1009.9
20260901004546 78 65 4.0 8.0 0.00 0.00 0.00 14 1009.9
20260901003032 79 52 3.0 7.0 0.00 0.00 0.00 13 1009.8
20260901001517 79 53 5.0 10.0 0.00 0.00 0.00 12 1009.8
20260901000028 80 30 5.0 10.0 0.00 0.00 0.00 12 1009.6
20260831234512 80 13 5.0 10.0 0.00 0.00 0.00 11 1009.7